Zurück zum Katalog

EUTELSAT QUANTUM

AktivKommunikationGEO
NORAD 49056·PAYLOAD·🇪🇺 EU

Gestartet Jul 30, 2021 von Guiana Space Centre

Loading…

TLE

AktuellSource: Space-Track

Epoche: Sep 14, 2026, 19:09 UTC

1 49056U 21069B   26257.79841438  .00000000  00000-0  00000-0 0  9998
2 49056   0.0101 145.8428 0002408  33.3903 149.6660  1.00273039 18821

Verfolge EUTELSAT QUANTUM in Echtzeit mit AllMySat

Download on the App Store